User: anonymous   Login
Location: Bishop's University Astronomical Observatory
(45.3661°N, 71.8475°W)
Time: 18:26:09
(UTC-04:00)
Language:

Meteor 2-5 Rocket - Orbit

View from above orbital plane
View from above orbital plane
View from above satellite
View from above satellite

Ground track
Ground track

The orbit data is extracted from the following two-line orbital elements,

1 11608U 79095B   16269.88860158 +.00000060 +00000-0 +28363-4 0  9996
2 11608 081.2111 107.4909 0054498 184.0551 176.0184 14.06104401892687
Epoch (UTC): 25 September 2016 21:19:35
Eccentricity: 0.0054498
inclination: 81.2111°
perigee height: 833 km
apogee height: 912 km
right ascension of ascending node: 107.4909°
argument of perigee: 184.0551°
revolutions per day: 14.06104401
mean anomaly at epoch: 176.0184°
orbit number at epoch: 89268

The dashed part of the orbit path shows where the satellite is in the earth's shadow,  

DLR